Вернуться в каталог

STARLINK-32299

АктивенСвязьVLEO
NORAD 61702·PAYLOAD·🇺🇸 United States

Запущен Oct 30, 2024 с Vandenberg Space Force Base

Loading…

Ближайшие Пролёты (ближайшие 24 часа)

TLE

СвежийSource: CelesTrak SupGP

Эпоха: Sep 14, 2026, 22:40 UTC

1 61702C 24195R   26257.94493056 -.00009280  00000+0 -27435-3 0  2570
2 61702  53.1594 351.9123 0001210  82.8246 110.2568 15.34376349    12

Отслеживайте STARLINK-32299 в реальном времени с AllMySat

Download on the App Store